Showing default

QIANFAN-25, 61558

Orbit data source: Space-Track

QIANFAN-25, 61558 is a Chinese payload satellite in LEO that was launched on Tue, 15 Oct 2024 UTC via a CHANG ZHENG 6A launch vehicle from the Taiyaun Space Center, China (TSC). Payload-class satellites include a variety of spacecraft equipped with specific instruments for various scientific and technological missions. These include communications satellites like Starlink; space stations such as the ISS; scientific satellites like the Hubble; Earth observation satellites from companies like Planet Labs, Umbra, and HawkEye 360; GPS; miniature CubeSats for education and research; and military/defense satellites.

Loading next visibility...
Identifier
61558, 2024-185G
Orbit
LEO
Country
Flag of CNCN / PRC
Related business
Manufacturer
GESIH/SECM
Mission
Operational Commercial Communications
Bus & Motor
QIANFAN, Unknown motor
Mass
267 kg wet, ~267 kg dry
Launch date (UTC)
2024-10-15 (1 year ago)
Launch vehicle
CHANG ZHENG 6A
Launch site
Taiyaun Space Center, China (TSC)
Object type
Payload
Rocket body
Debris
Shape & HBR
Box + 1 Pan, 5.0 m
Radar Cross Section
13.200 m², Large (>1 m²)

Expand to show TLE details & history
Last TLE update: 5 hours ago

TLE from 5 hours ago
0 QIANFAN-25
1 61558U 24185G   25288.99984178  .00000791  00000-0  47573-3 0  9991
2 61558  88.9759  84.7186 0010328 120.7638 239.4562 14.05825462 61395
Epoch: 2025-10-15T23:59Z
TLE epoch observation values (Epoch: 2025-10-15T23:59:46.329Z)
Latitude
-0.00008°
Longitude
60.00971°
Altitude
880.538 km
Speed
7.41 km/s
True Right ascension
05h 38m 52s
True Declination
0° 00' 00"
Sunlit
Object was in daylight at epoch
Visualization orbit readout
Latitude
Unknown
Longitude
Unknown
Altitude
Unknown
Speed
Unknown
Apparent Right ascension
Unknown
Apparent Declination
Unknown
Sunlit
N/A
Visualization observer readout
Local Sidereal Time
23:45:46
Azimuth
Unknown
Elevation
Unknown
Doppler factor
Unknown
Orbital elements
Apogee altitude
878.151 km
Perigee altitude
863.177 km
Semi-major axis
7,248.801 km
Eccentricity
0.00103
Inclination
88.9759°
RAAN
84.7186°
Arg. of periapsis
120.7638°
True anomaly
239.35434°
Mean anomaly
239.4562°
Eccentric anomaly
239.40526°
Mean motion
3.51677 °/min
Orbital period
102.37 mins
BSTAR
0.00047573
Loading maneuver chart data...
Computing Atmospheric mass density...
Loading historical data...
Loading historical data...
Loading historical data...
Loading historical data...
Loading historical data...
Loading historical data...
Loading historical data...

Documentation

Showing up to 5 results
|